Regional Weather Roundup
Issued by NWS

Home | Current Version | Previous Version | Graphics & Text | Print | Product List | Glossary On
Versions: 1 2 3 4 5 6 7 8 9 10 11 12 13 14 15 16 17 18 19 20 21 22 23 24 25 26 27 28 29 30 31 32 33 34 35 36 37 38 39 40 41 42 43 44 45 46 47 48 49 50
000
ASUS43 KLOT 220721
RWRIL

ILLINOIS REGIONAL WEATHER ROUNDUP
NATIONAL WEATHER SERVICE CHICAGO/ROMEOVILLE IL
200 AM CDT FRI MAY 22 2015

NOTE: "FAIR" INDICATES FEW OR NO CLOUDS BELOW 12,000 FEET WITH NO
SIGNIFICANT WEATHER AND/OR OBSTRUCTIONS TO VISIBILITY.

* THESE STATIONS ARE NOT UNDER NWS QUALITY CONTROL. THEY ALSO MAY NOT
  REPORT WEATHER SUCH AS PRECIPITATION OR FOG.

ILZ001-002-007-009-015-016-024-220800-
NORTHWEST ILLINOIS

CITY           SKY/WX    TMP DP  RH WIND       PRES   REMARKS
MOLINE         CLEAR     48  42  80 W3        30.07R
STERLING*      CLEAR     52  43  71 W7        30.06S
SAVANNA*       CLEAR     49  45  85 CALM      30.05R
$$

ILZ003-004-008-010-011-017-018-220800-
NORTH CENTRAL ILLINOIS

CITY           SKY/WX    TMP DP  RH WIND       PRES   REMARKS
ROCKFORD       CLEAR     52  41  66 W3        30.06R
FREEPORT*      CLEAR     52  41  67 W7        30.07R
ROCHELLE*      CLEAR     50  44  80 W5        30.05R
DE KALB*       CLEAR     53  42  67 W10       30.04S
PERU*          CLEAR     56  46  67 W12       30.06S
$$

ILZ005-006-012>014-019>023-220800-
NORTHEAST ILLINOIS

CITY           SKY/WX    TMP DP  RH WIND       PRES   REMARKS
CHICAGO-OHARE  PTCLDY    57  41  55 W8        30.02R
CHICAGO-MIDWAY PTCLDY    59  43  55 SW12      30.03S
AURORA         CLEAR     55  43  63 SW8       30.04R
LANSING*       CLEAR     55  40  57 SW7       30.04S
JOLIET*        CLEAR     58  45  63 SW6       30.04S
WAUKEGAN       CLEAR     48  40  73 VRB6      30.05R
DUPAGE AIRPORT CLEAR     53  42  66 SW9       30.02S
KANKAKEE*      CLEAR     53  44  71 SW9       30.07S
WHEELING       CLEAR     56  41  57 VRB6      30.06R
MORRIS*        CLEAR     56  45  64 W10       30.02R
ROMEOVILLE*    CLEAR     55  43  62 W10       30.04S
NORTHERLY ISL    N/A     59  40  49 SW3         N/A
$$

LMZ740>746-220800-
SOUTHERN LAKE MICHIGAN

STATION/POSITION SKY/WX   TEMP    WIND        PRES    VSBY  WAVE
                          AIR SEA DIR/SP/G                  HT/PER
                          (F)     (DEG/KT/KT) (MB)    (MI)  (FT/S)
SOUTHERN BUOY              43 38   20/  8/ 10 1018.2R         1
HARRISON CRIB              58      60/  3/  4   N/A
BURNHAM HARBOR             59      CALM  /  8   N/A
CALUMET HARBOR             60                   N/A
BURNS HARBOR               58     220/ 12/ 15 1017.6S
MICHIGAN CITY              55     260/  4/  6   N/A
MICHIGAN CITY 6N           53 51   CALM  /  4   N/A           1/ 2
ST. JOSEPH                 54 53   30/  4/  6   N/A           1/ 2
$$

ILZ025>027-034>036-040-047-049-050-058-095>099-220800-
WEST-CENTRAL ILLINOIS

CITY           SKY/WX    TMP DP  RH WIND       PRES   REMARKS
QUINCY         CLEAR     54  45  71 W9        30.15R
GALESBURG*     CLEAR     55  47  75 SW8       30.09S
MACOMB*        CLEAR     55  47  76 W12       30.13R
JACKSONVILLE*  CLEAR     56  47  71 SW8       30.14S
PITTSFIELD*    CLEAR     57  46  66 W10       30.16S
$$

ILZ028>032-037-038-041>044-048-051>054-059>061-220800-
CENTRAL ILLINOIS

CITY           SKY/WX    TMP DP  RH WIND       PRES   REMARKS
PONTIAC        CLEAR     58  47  66 SW12      30.08S
BLOOMINGTON    CLEAR     53  46  77 SW12      30.10F
DECATUR        CLEAR     53  45  74 SW10      30.13S
PEORIA         CLEAR     56  46  69 SW6       30.09R
LACON*         CLEAR     55  46  70 SW7       30.06S
LINCOLN*       CLEAR     55  45  69 SW5       30.10S
SPRINGFIELD    CLEAR     56  45  66 SW8       30.14R
TAYLORVILLE    CLEAR     52  45  76 SW8       30.14S
$$

ILZ033-039-045-046-055>057-062-063-220800-
EAST-CENTRAL ILLINOIS

CITY           SKY/WX    TMP DP  RH WIND       PRES   REMARKS
CHAMPAIGN      CLEAR     50  44  80 SW8       30.11F
DANVILLE*      CLEAR     50  43  78 SW7       30.08F
RANTOUL*       PTCLDY    55  44  67 W8        30.10F
MATTOON        CLEAR     52  42  69 SW9       30.13S
PARIS*         CLEAR     50  42  75 SW8       30.13S
$$

ILZ079-100>102-220800-
SOUTHWEST ILLINOIS

CITY           SKY/WX    TMP DP  RH WIND       PRES   REMARKS
ALTON          CLEAR     51  48  89 SW7       30.18S
BELLEVILLE     CLEAR     49  45  86 SW6       30.18R
CAHOKIA*       CLEAR     52  44  74 CALM      30.19R
SPARTA*        CLEAR     49  44  80 SW5       30.21S
$$

ILZ064>066-069>071-074>076-080>082-084>086-088>090-092>094-220800-
SOUTH-CENTRAL ILLINOIS

CITY           SKY/WX    TMP DP  RH WIND       PRES   REMARKS
CARBONDALE     CLEAR     45  42  89 SW3       30.21S
CAIRO*         CLEAR     47  46  99 CALM      30.22S
EFFINGHAM*     CLEAR     49  40  72 S6        30.18S
MARION         CLEAR     46  45  93 S5        30.22R
MT. VERNON     CLEAR     43  36  75 CALM      30.20S VSB 1
CENTRALIA*     CLEAR     47  42  84 SW6       30.19S
SALEM*         CLEAR     50  44  79 SW5       30.19R
METROPOLIS*    CLEAR     46  46 100 CALM      30.21S
$$

ILZ067-068-072-073-078-083-087-091-220800-
SOUTHEAST ILLINOIS

CITY           SKY/WX    TMP DP  RH WIND       PRES   REMARKS
LAWRENCEVILLE  CLEAR     47  42  83 SW3       30.17S
FLORA*         CLEAR     48  43  81 SW8       30.19R
FAIRFIELD*     CLEAR     45  44  97 CALM      30.18S
HARRISBURG*    CLEAR     45  45 100 CALM      30.22S
ROBINSON*      CLEAR     51  43  73 SW9       30.17S
CARMI*         CLEAR     47  41  81 SW7       30.19R
$$

ABBREVIATIONS USED IN REMARKS
   TC - TEMPERATURE IN CELSIUS
  WCI - WIND CHILL INDEX
   HX - HEAT INDEX
  VSB - VISIBILITY
$$



USA.gov is the U.S. government's official web portal to all federal, state and local government web resources and services.